STARLINK-36471, 67324

Orbit data source: Space-Track

STARLINK-36471, 67324 is a payload satellite owned by SpaceX/Seattle (US) in LEO that was launched on Sun, 04 Jan 2026 UTC via an FALCON 9 launch vehicle from the Air Force Eastern Test Range (AFETR). Payload-class satellites include a variety of spacecraft equipped with specific instruments for various scientific and technological missions. These include communications satellites like Starlink; space stations such as the ISS; scientific satellites like the Hubble; Earth observation satellites from companies like Planet Labs, Umbra, and HawkEye 360; GPS; miniature CubeSats for education and research; and military/defense satellites.

Loading next visibility...
Identifier
67324, 2026-002V
Orbit
LEO
Country
Flag of USUS
Related business
Manufacturer
SpaceX/Seattle
Mission
Operational Commercial Communications
Bus & Motor
STARLINK V2MO, Unknown motor
Mass
575 kg wet, ~530 kg dry
Launch date (UTC)
2026-01-04 (2 months ago)
Launch vehicle
FALCON 9
Launch site
Air Force Eastern Test Range (AFETR)
Object type
Payload
Rocket body
Debris
Shape & HBR
Box + 2 Pan, 17.7 m
Radar Cross Section
36.964 m²

Expand to show TLE details & history
Last TLE update: 10 hours ago

TLE from 10 hours ago
0 STARLINK-36471
1 67324U 26002V   26062.82270917  .00030170  00000-0  11010-2 0  9990
2 67324  42.9995 358.2240 0001098 308.3626  51.7127 15.27592424 10186
Epoch: 2026-03-03T19:44Z
TLE epoch observation values (Epoch: 2026-03-03T19:44:42.072Z)
Latitude
-0°
Longitude
-99.54755°
Altitude
482.321 km
Speed
7.626 km/s
True Right ascension
23h 52m 53s
True Declination
0° 00' 00"
Sunlit
Object was in daylight at epoch
Visualization orbit readout
Latitude
Unknown
Longitude
Unknown
Altitude
Unknown
Speed
Unknown
Apparent Right ascension
Unknown
Apparent Declination
Unknown
Sunlit
N/A
Visualization observer readout
Local Sidereal Time
09:11:50
Azimuth
Unknown
Elevation
Unknown
Doppler factor
Unknown
Orbital elements
Apogee altitude
485.711 km
Perigee altitude
484.204 km
Semi-major axis
6,863.094 km
Eccentricity
0.00011
Inclination
42.9995°
RAAN
358.224°
Arg. of periapsis
308.3626°
True anomaly
51.72258°
Mean anomaly
51.7127°
Eccentric anomaly
51.71764°
Mean motion
3.81736 °/min
Orbital period
94.31 mins
BSTAR
0.001101
Loading maneuver chart data...
Computing Atmospheric mass density...
Loading historical data...
Loading historical data...
Loading historical data...
Loading historical data...
Loading historical data...
Loading historical data...
Loading historical data...

Documentation

Showing up to 5 results
|